Location: Cheching
(60.0667°N, 164.2167°W)
Time: 14:32:21
(UTC+00:00)

STRAND 1 - Pass Details

Date: 18 January 2021
Orbit: 768 x 780 km, 98.4° (Epoch: 04 March)

Event Time Altitude Azimuth Distance (km) Brightness Sun altitude
Rises 15:49:25 0° 131° (SE) 3,240 ? -27.3°
Reaches altitude 10° 15:51:50 10° 123° (ESE) 2,318 ? -27.0°
Maximum altitude 15:56:32 38° 57° (ENE) 1,173 ? -26.4°
Drops below altitude 10° 16:01:15 10° 351° (N) 2,337 ? -25.8°
Enters shadow 16:01:46 - 349° (NNW) 2,529 ? -25.7°
